Showing default

OPS 9325 (IDSCS 12), 2652

Orbit data source: Space-Track

OPS 9325 (IDSCS 12), 2652 is a payload satellite owned by USAF SSD (US) in GEO that was launched on Wed, 18 Jan 1967 UTC via a TITAN IIIC launch vehicle from the Air Force Eastern Test Range (AFETR). Payloads include a variety of satellites, spacecraft, and rockets equipped with specific instruments for various scientific and technological missions. These include communications satellites like Starlink; space stations such as the ISS; scientific satellites like the Hubble; Earth observation satellites from companies like Planet Labs, Umbra, and HawkEye 360; GPS; miniature CubeSats for education and research; and military/defense satellites.

Loading next visibility...
OPS 9325 (IDSCS 12) details
Identifier
2652, 1967-003E
Orbit
GEO
Last TLE update1 day ago
Origin
Flag of USUSAF SSD (US)
ManufacturerPhilco-Ford WDL
MissionNon-operational Defense Communications
Bus & MotorIDCSP, Unknown motor
Mass45 kg wet, 45 kg dry
Launch date (UTC)
1967-01-18 (58 years ago)
Launch vehicle
TITAN IIIC
Launch site
Air Force Eastern Test Range (AFETR)
Object type
Payload
Rocket body
Debris
Shape & HBRIco Poly, 0.9 m
Radar Cross Section0.926 m², Small (<0.1 m²)

Expand to show TLE details & history

TLE from 1 day ago
0 OPS 9325 (IDSCS 12)
1 02652U 67003E   25039.22169492 -.00000079  00000-0  00000-0 0  9992
2 02652   7.3204  50.1543 0037411  66.7196 293.7581  1.07942394134789
Epoch: 2025-02-08T05:19Z
Definitive object data (Epoch: 2025-02-08T05:19:14.441Z)
Latitude0.00001°
Longitude-168.1226°
Altitude33,704.088 km
Speed3.156 km/s
True Right ascension03h 21m 02s
True Declination0° 00' 00"
Sunlit
Object was in daylight at TLE epoch
Visualization TLE readout
Latitude-1.77551°
Longitude25.8089°
Altitude33,855.024 km
Speed3.144 km/s
Apparent Right ascension16h 04m 28s
Apparent Declination-8° 27' 22"
Sunlit
Object is in daylight
Visualization observer readout
Local Sidereal Time17:48:57
Azimuth212.535° SW
Elevation35.931°
Doppler factor1
Orbital elements
Apogee altitude33,915.892 km
Perigee altitude33,615.528 km
Semi-major axis40,143.847 km
Eccentricity0.0037411
Inclination7.3204°
RAAN50.1543°
Arg. of periapsis66.7196°
True anomaly293.36499°
Mean anomaly293.7581°
Eccentric anomaly293.56162°
Mean motion0.26985 °/min
BSTARUnknown
Orbital period1334.1 mins
Loading historical data...
2652 neighbors
Authenticating...
Loading maneuver chart data...
Loading historical data...
Loading historical data...
Loading historical data...
Loading historical data...
Loading historical data...
Loading historical data...
Loading historical data...

OPS 9325 (IDSCS 12) Visibility forecast

Observer location: undefined°, undefined

Span
Click to sort rows by Start time (UTC) header in descending order
Start Az.
Max El. time (UTC)
Max El. Az.
Max El.
End time (UTC)
End Az.
1440 mins2025-02-09 15:29:31.309Z212.524° SW2025-02-10 07:38:31.309Z188.152° SSW38.031°2025-02-10 15:29:31.309Z173.96° S
|